Terminal Aerodrome Forecast
Issued by NWS Charleston, WV

Current Version | Previous Version | Text Only | Print | Product List | Glossary Off
Versions: 1 2 3 4 5 6 7 8 9 10 11 12 13 14 15 16 17 18 19

378
FTUS41 KRLX 070532
TAFBKW
TAF
KBKW 070532Z 0706/0806 00000KT P6SM OVC110
     FM071000 VRB03KT P6SM SCT100
     FM071300 23007KT P6SM SKC=

USA.gov is the U.S. government's official web portal to all federal, state and local government web resources and services.